FW6057 Weather Reports


Display with metric or nautical units.
time (UTC)temp
F
wind
direction
speed
MPH
gust
MPH
rain 1hr
in
rain 24hr
in
rain mn
in
humidity
%
barometer
mb
20200329161517 51 60 4.0 6.0 0.00 0.69 0.00 88 1014.8
20200329160516 50 88 4.0 7.0 0.00 0.83 0.00 88 1014.1
20200329160013 51 30 5.0 7.0 0.00 0.84 0.00 88 1014.7
20200329155515 51 51 3.0 5.0 0.00 0.84 0.00 88 1014.9
20200329155014 51 63 3.0 4.0 0.00 0.84 0.00 88 1015.1
20200329154516 50 41 1.0 6.0 0.00 0.86 0.00 88 1015.6
20200329154014 50 79 3.0 6.0 0.00 0.87 0.00 88 1015.6
20200329153516 51 35 4.0 6.0 0.00 0.89 0.00 88 1015.6
20200329153014 51 356 1.0 5.0 0.00 0.90 0.00 88 1016.0
20200329152517 51 92 4.0 5.0 0.00 0.91 0.00 88 1015.0
20200329152015 50 0 0.0 4.0 0.00 0.92 0.00 88 1015.6
20200329151516 50 44 1.0 3.0 0.00 0.93 0.00 88 1015.9
20200329151015 50 88 2.0 4.0 0.00 0.98 0.00 88 1016.0
20200329150515 50 71 2.0 5.0 0.00 0.99 0.00 88 1016.4
20200329150014 49 51 3.0 5.0 0.00 1.00 0.00 88 1016.0
20200329145515 49 0 0.0 5.0 0.00 1.00 0.00 88 1016.3
20200329145014 49 0 0.0 5.0 0.00 1.00 0.00 88 1016.5
20200329144517 49 38 2.0 5.0 0.00 1.01 0.00 88 1016.4
20200329144016 49 24 2.0 4.0 0.00 1.02 0.00 88 1016.8
20200329143516 49 22 1.0 4.0 0.00 1.04 0.00 88 1016.8
20200329143017 49 37 2.0 4.0 0.00 1.06 0.00 88 1016.8
20200329142516 49 34 2.0 6.0 0.00 1.06 0.00 88 1016.7
20200329142015 49 46 3.0 6.0 0.00 1.06 0.00 88 1016.7
20200329141517 49 30 3.0 5.0 0.00 1.06 0.00 88 1017.0
20200329141016 49 11 1.0 5.0 0.00 1.06 0.00 88 1016.9
20200329140013 49 43 2.0 4.0 0.00 1.06 0.00 88 1017.0
20200329135514 49 45 2.0 4.0 0.00 1.06 0.00 88 1017.0
20200329135016 49 24 3.0 4.0 0.00 1.07 0.00 88 1016.9
20200329134514 49 43 1.0 3.0 0.00 1.09 0.00 88 1016.7
20200329134016 49 50 1.0 6.0 0.00 1.10 0.00 88 1016.5
20200329133514 49 72 2.0 5.0 0.00 1.11 0.00 88 1016.5
20200329133016 49 82 2.0 5.0 0.00 1.14 0.00 88 1016.5
20200329132515 48 39 1.0 3.0 0.00 1.17 0.00 88 1016.7
20200329132018 48 0 0.0 6.0 0.00 1.23 0.00 88 1016.8
20200329131514 48 41 3.0 7.0 0.00 1.26 0.00 88 1016.7
20200329131015 48 37 3.0 5.0 0.00 1.28 0.00 88 1016.5
20200329130515 48 32 3.0 6.0 0.00 1.31 0.00 88 1016.2
20200329130013 48 33 3.0 6.0 0.00 1.33 0.00 88 1016.6
20200329125514 48 21 3.0 4.0 0.00 1.33 0.00 88 1016.4
20200329125015 48 23 1.0 2.0 0.00 1.33 0.00 88 1016.3
20200329124514 48 31 2.0 6.0 0.00 1.33 0.00 88 1016.1
20200329124016 48 52 2.0 4.0 0.00 1.33 0.00 88 1016.0
20200329123514 48 25 3.0 6.0 0.00 1.33 0.00 88 1015.9
20200329123017 48 22 2.0 5.0 0.00 1.33 0.00 88 1015.7
20200329122516 48 36 3.0 5.0 0.00 1.33 0.00 88 1015.6
20200329122015 48 42 3.0 5.0 0.00 1.33 0.00 88 1015.7
20200329121515 48 68 2.0 5.0 0.00 1.34 0.00 88 1015.8
20200329121015 48 40 1.0 5.0 0.00 1.34 0.00 88 1015.9
20200329120515 48 53 2.0 4.0 0.00 1.34 0.00 88 1016.0
20200329115517 48 19 1.0 2.0 0.00 1.34 0.00 88 1016.0
20200329115013 48 77 2.0 6.0 0.00 1.34 0.00 88 1015.8
20200329114516 48 53 4.0 6.0 0.00 1.34 0.00 88 1015.4
20200329114014 48 39 3.0 7.0 0.00 1.34 0.00 88 1015.4
20200329113516 48 59 4.0 6.0 0.00 1.34 0.00 88 1015.6
20200329113013 47 62 4.0 7.0 0.00 1.34 0.00 88 1015.5
20200329112515 47 36 4.0 7.0 0.00 1.34 0.00 88 1015.4
20200329112014 47 70 3.0 8.0 0.00 1.34 0.00 88 1015.6
20200329111520 47 46 5.0 7.0 0.00 1.34 0.00 88 1015.2
20200329111014 47 52 4.0 7.0 0.00 1.34 0.00 88 1015.3
20200329110516 47 37 4.0 7.0 0.00 1.34 0.00 88 1015.2
20200329110013 47 55 3.0 7.0 0.00 1.34 0.00 88 1015.3
20200329105515 47 0 0.0 11.0 0.00 1.34 0.00 88 1015.0
20200329105014 47 47 4.0 10.0 0.00 1.34 0.00 88 1014.4
20200329104515 47 46 4.0 9.0 0.00 1.34 0.00 88 1014.3
20200329104014 47 45 3.0 6.0 0.00 1.34 0.00 88 1014.7
20200329103516 47 75 3.0 7.0 0.00 1.34 0.00 88 1015.0
20200329103015 47 27 2.0 8.0 0.00 1.34 0.00 88 1015.2
20200329102515 47 40 4.0 9.0 0.00 1.34 0.00 88 1015.1
20200329102015 47 51 5.0 10.0 0.00 1.34 0.00 88 1014.8
20200329101515 47 63 5.0 7.0 0.00 1.34 0.00 88 1014.4
20200329101015 47 47 5.0 9.0 0.00 1.35 0.00 88 1014.6
20200329100515 47 50 6.0 8.0 0.00 1.35 0.00 88 1014.7
20200329100014 47 29 3.0 6.0 0.00 1.35 0.00 88 1014.9
20200329095015 47 71 3.0 7.0 0.00 1.35 0.00 88 1015.0
20200329094513 47 34 3.0 6.0 0.00 1.35 0.00 88 1015.0
20200329094014 47 62 3.0 5.0 0.00 1.35 0.00 88 1015.1
20200329093515 47 63 2.0 4.0 0.00 1.35 0.00 88 1015.0
20200329093019 47 65 3.0 5.0 0.00 1.35 0.00 88 1014.7
20200329092514 47 72 2.0 6.0 0.00 1.35 0.00 88 1014.4
20200329092016 47 42 3.0 8.0 0.00 1.35 0.00 88 1014.3
20200329091015 47 57 2.0 5.0 0.00 1.35 0.00 88 1014.6
20200329090513 47 43 4.0 6.0 0.00 1.35 0.00 88 1014.6
20200329090013 47 60 2.0 7.0 0.00 1.35 0.00 88 1014.5
20200329085514 47 51 2.0 5.0 0.00 1.35 0.00 88 1014.6
20200329085014 47 33 2.0 7.0 0.00 1.36 0.00 88 1014.7
20200329084514 47 63 3.0 8.0 0.00 1.36 0.00 88 1014.8
20200329084015 47 82 3.0 6.0 0.00 1.36 0.00 88 1014.9
20200329083515 47 63 4.0 7.0 0.00 1.36 0.00 88 1014.6
20200329083015 47 57 4.0 8.0 0.00 1.36 0.00 88 1014.9
20200329082514 48 46 3.0 6.0 0.00 1.36 0.00 88 1014.9
20200329082015 48 67 1.0 5.0 0.00 1.36 0.00 88 1014.7
20200329081515 48 36 5.0 8.0 0.00 1.36 0.00 88 1014.7
20200329081016 48 0 0.0 6.0 0.00 1.36 0.00 88 1014.9
20200329080522 48 31 4.0 8.0 0.00 1.36 0.00 88 1015.1
20200329080013 48 45 2.0 6.0 0.00 1.36 0.00 88 1015.3
20200329075515 48 68 3.0 6.0 0.00 1.36 0.00 88 1015.5
20200329075014 48 57 4.0 5.0 0.00 1.36 0.00 88 1015.4
20200329074515 48 54 2.0 7.0 0.00 1.36 0.00 88 1015.5
20200329073515 48 61 4.0 6.0 0.00 1.36 0.00 88 1015.4
20200329073014 48 76 2.0 6.0 0.00 1.36 0.00 88 1015.4
20200329072516 48 45 3.0 6.0 0.00 1.36 0.00 88 1015.2
20200329072014 48 53 4.0 6.0 0.00 1.36 0.00 88 1015.2
20200329071515 48 42 3.0 5.0 0.00 1.36 0.00 88 1015.5
20200329071014 48 45 3.0 6.0 0.00 1.36 0.00 88 1015.6
20200329070515 48 44 2.0 6.0 0.00 1.36 0.00 88 1015.5
20200329070014 48 54 3.0 6.0 0.00 1.36 0.00 88 1015.7
20200329065515 48 31 2.0 5.0 0.00 1.36 0.00 88 1015.8
20200329065014 48 15 2.0 4.0 0.00 1.36 0.00 88 1016.0
20200329064515 48 49 2.0 5.0 0.00 1.36 0.00 88 1015.9
20200329064014 48 353 3.0 5.0 0.00 1.36 0.00 88 1015.9
20200329063517 48 8 2.0 6.0 0.00 1.36 0.00 88 1016.0
20200329063014 48 33 2.0 3.0 0.00 1.36 0.00 88 1015.9
20200329062515 48 1 2.0 4.0 0.00 1.36 0.00 88 1015.9
20200329062014 48 3 2.0 6.0 0.00 1.36 0.00 88 1015.8
20200329061513 48 2 2.0 4.0 0.00 1.36 0.00 88 1015.8
20200329061103 48 17 1.0 5.0 0.00 1.36 0.00 88 1015.8
20200329060514 48 359 3.0 5.0 0.00 1.36 0.00 88 1015.7
20200329060014 48 5 4.0 7.0 0.00 1.36 0.00 88 1015.9
20200329055515 48 354 3.0 6.0 0.00 1.36 0.00 88 1015.7
20200329055016 48 9 2.0 5.0 0.00 1.36 0.00 88 1015.7
20200329054516 48 6 3.0 7.0 0.00 1.36 0.00 88 1015.7
20200329054015 48 0 0.0 5.0 0.00 1.36 0.00 88 1015.8
20200329053515 48 7 2.0 5.0 0.00 1.36 0.00 88 1016.0
20200329053015 47 0 2.0 5.0 0.00 1.36 0.00 88 1016.1
20200329052015 48 0 0.0 4.0 0.00 1.36 0.00 88 1016.1
20200329051513 48 353 2.0 3.0 0.00 1.36 0.00 88 1016.2
20200329051015 48 356 2.0 5.0 0.00 1.36 0.00 88 1016.1
20200329050513 48 14 2.0 6.0 0.00 1.36 0.00 88 1016.1
20200329050013 48 351 1.0 6.0 0.00 1.36 0.00 88 1016.0
20200329045514 48 358 4.0 7.0 0.00 1.36 0.00 88 1016.1
20200329045014 48 3 2.0 4.0 0.00 1.36 0.00 88 1015.9
20200329044514 48 5 2.0 4.0 0.00 1.36 0.00 88 1015.8
20200329044015 48 11 3.0 5.0 0.00 1.36 0.00 88 1015.9
20200329043514 48 17 3.0 6.0 0.00 1.36 0.00 88 1015.8
20200329043015 48 14 3.0 5.0 0.00 1.36 0.00 88 1015.8
20200329042514 49 1 3.0 5.0 0.00 1.36 0.00 88 1015.8
20200329042016 48 9 2.0 6.0 0.00 1.36 0.00 88 1015.7
20200329041514 49 14 1.0 3.0 0.00 1.36 0.00 88 1015.9
20200329041015 49 0 0.0 4.0 0.00 1.36 0.00 88 1015.6
20200329040514 48 39 3.0 5.0 0.00 1.36 0.00 88 1015.5
20200329040131 48 22 2.0 3.0 0.00 1.36 0.00 88 1015.5
20200329035515 48 30 2.0 5.0 0.00 1.36 1.36 88 1015.7
20200329035016 48 21 3.0 5.0 0.00 1.36 1.36 88 1015.7
20200329034516 48 0 0.0 5.0 0.00 1.36 1.36 88 1015.8
20200329034015 48 0 3.0 5.0 0.00 1.36 1.36 88 1015.9
20200329033516 48 17 3.0 5.0 0.00 1.36 1.36 88 1015.8
20200329033015 48 4 3.0 4.0 0.00 1.36 1.36 88 1015.7
20200329032516 48 9 2.0 4.0 0.00 1.36 1.36 88 1015.6
20200329032016 48 0 0.0 5.0 0.00 1.36 1.36 88 1015.0
20200329031515 48 354 1.0 4.0 0.00 1.36 1.36 88 1015.0
20200329030514 48 56 3.0 5.0 0.00 1.36 1.36 88 1014.8
20200329030014 48 44 3.0 5.0 0.00 1.36 1.36 88 1014.5
20200329025515 48 45 2.0 5.0 0.00 1.36 1.36 88 1014.5
20200329025014 48 49 3.0 5.0 0.00 1.36 1.36 88 1014.4
20200329024520 48 63 2.0 6.0 0.00 1.36 1.36 88 1014.9
20200329024014 48 78 3.0 5.0 0.01 1.36 1.36 88 1014.3
20200329023514 48 0 0.0 4.0 0.03 1.36 1.36 88 1014.8
20200329023014 48 35 3.0 4.0 0.05 1.36 1.36 88 1014.9
20200329022516 48 67 1.0 3.0 0.08 1.36 1.36 88 1015.4
20200329022014 48 90 1.0 3.0 0.10 1.36 1.36 88 1015.6
20200329021515 48 0 0.0 2.0 0.13 1.36 1.36 88 1015.6
20200329021014 48 110 1.0 5.0 0.15 1.36 1.36 88 1015.8
20200329020515 48 44 2.0 5.0 0.17 1.36 1.36 88 1015.7
20200329020014 48 55 3.0 9.0 0.18 1.36 1.36 88 1015.9
20200329015516 48 283 0.0 3.0 0.19 1.36 1.36 88 1016.2
20200329015015 48 357 1.0 3.0 0.19 1.36 1.36 88 1017.1
20200329014514 48 50 1.0 8.0 0.20 1.36 1.36 88 1015.9
20200329014014 48 54 5.0 7.0 0.19 1.35 1.35 88 1015.3
20200329013514 48 54 3.0 6.0 0.17 1.33 1.33 88 1016.3
20200329013015 48 161 2.0 3.0 0.15 1.31 1.31 88 1017.6
20200329012516 48 280 0.0 3.0 0.12 1.28 1.28 88 1017.8
20200329012016 48 21 1.0 4.0 0.10 1.26 1.26 88 1017.3
20200329011515 48 24 3.0 4.0 0.08 1.23 1.23 88 1017.4
20200329011016 48 5 3.0 7.0 0.05 1.21 1.21 88 1017.7
20200329010514 48 358 3.0 5.0 0.03 1.19 1.19 88 1017.9
20200329010014 48 0 0.0 6.0 0.02 1.18 1.18 88 1017.4
20200329005014 48 354 5.0 6.0 0.01 1.17 1.17 88 1017.3
20200329004514 48 6 4.0 7.0 0.00 1.16 1.16 88 1017.1
20200329004016 49 358 2.0 5.0 0.00 1.16 1.16 88 1017.1
20200329003514 48 3 3.0 6.0 0.00 1.16 1.16 88 1017.0
20200329003015 48 0 2.0 5.0 0.00 1.16 1.16 88 1016.7
20200329002514 49 16 2.0 3.0 0.00 1.16 1.16 88 1016.5
20200329002014 49 33 2.0 4.0 0.00 1.16 1.16 88 1016.7
20200329001514 49 0 1.0 4.0 0.00 1.16 1.16 88 1016.8
20200329001013 49 45 3.0 4.0 0.00 1.16 1.16 88 1016.7
20200329000518 49 7 3.0 5.0 0.01 1.16 1.16 88 1016.9
20200329000013 48 352 4.0 5.0 0.01 1.16 1.16 88 1016.6
20200328235514 49 19 2.0 4.0 0.01 1.16 1.16 88 1016.3
20200328235014 49 5 2.0 4.0 0.01 1.16 1.16 88 1016.0
20200328234514 49 29 4.0 7.0 0.01 1.16 1.16 88 1015.8
20200328234013 49 37 3.0 6.0 0.01 1.16 1.16 88 1015.5
20200328233514 49 40 2.0 6.0 0.01 1.16 1.16 88 1015.4
20200328233014 49 63 2.0 7.0 0.01 1.16 1.16 88 1015.0
20200328232514 49 93 2.0 5.0 0.01 1.16 1.16 88 1014.8
20200328232014 49 130 2.0 6.0 0.01 1.16 1.16 88 1015.5
20200328231515 48 76 3.0 5.0 0.01 1.16 1.16 88 1015.8
20200328231014 48 87 2.0 6.0 0.01 1.15 1.15 88 1015.9
20200328230515 49 0 0.0 6.0 0.00 1.15 1.15 88 1016.1
20200328230027 48 48 2.0 4.0 0.00 1.15 1.15 88 1016.8
20200328225516 48 0 0.0 4.0 0.00 1.15 1.15 88 1017.1
20200328225016 48 13 2.0 3.0 0.00 1.15 1.15 88 1017.0
20200328224515 48 39 1.0 3.0 0.00 1.15 1.15 88 1016.9
20200328224015 48 0 0.0 4.0 0.00 1.15 1.15 88 1016.9
20200328223515 48 36 2.0 4.0 0.00 1.15 1.15 88 1016.8
20200328223015 48 35 3.0 6.0 0.00 1.15 1.15 88 1016.7
20200328222516 48 38 3.0 5.0 0.00 1.15 1.15 88 1016.2
20200328222015 48 58 2.0 6.0 0.00 1.15 1.15 88 1016.0
20200328221513 48 54 3.0 5.0 0.00 1.15 1.15 88 1016.1
20200328221013 48 39 2.0 6.0 0.00 1.15 1.15 88 1016.3
20200328220514 48 59 2.0 5.0 0.00 1.15 1.15 88 1016.4
20200328220013 48 66 2.0 4.0 0.00 1.15 1.15 88 1016.4
20200328215514 48 58 2.0 5.0 0.00 1.15 1.15 88 1016.3
20200328215016 48 50 4.0 6.0 0.00 1.15 1.15 88 1016.4
20200328214516 48 0 0.0 5.0 0.00 1.15 1.15 88 1016.3
20200328214014 48 75 2.0 7.0 0.00 1.15 1.15 88 1016.1
20200328213515 48 67 4.0 6.0 0.00 1.15 1.15 88 1016.3
20200328213014 48 61 2.0 6.0 0.00 1.15 1.15 88 1016.0
20200328212515 48 0 0.0 6.0 0.00 1.15 1.15 88 1015.7
20200328212015 48 69 4.0 6.0 0.00 1.15 1.15 88 1015.9
20200328211513 47 58 4.0 6.0 0.00 1.15 1.15 88 1016.2
20200328211014 47 52 2.0 5.0 0.00 1.15 1.15 88 1016.3
20200328210515 48 0 0.0 5.0 0.00 1.15 1.15 88 1016.3
20200328210014 47 67 3.0 6.0 0.00 1.15 1.15 88 1016.2
20200328205515 47 56 2.0 5.0 0.00 1.15 1.15 88 1016.1
20200328205014 47 53 2.0 7.0 0.00 1.15 1.15 88 1016.1
20200328204514 47 46 3.0 6.0 0.00 1.15 1.15 88 1016.4
20200328204014 47 25 2.0 6.0 0.00 1.15 1.15 88 1016.3
20200328203515 47 0 0.0 6.0 0.00 1.15 1.15 88 1016.0
20200328203016 47 62 4.0 8.0 0.00 1.15 1.15 88 1015.8
20200328202515 47 64 2.0 6.0 0.00 1.15 1.15 88 1016.0
20200328202016 47 27 3.0 6.0 0.00 1.15 1.15 88 1016.0
20200328201516 47 43 2.0 6.0 0.00 1.15 1.15 88 1016.2
20200328201015 48 0 0.0 5.0 0.00 1.15 1.15 88 1015.9
20200328200514 48 68 2.0 5.0 0.00 1.15 1.15 88 1016.0
20200328200013 48 81 3.0 5.0 0.00 1.15 1.15 88 1016.1
20200328195516 47 84 3.0 5.0 0.00 1.15 1.15 88 1016.2
20200328195015 48 68 2.0 6.0 0.00 1.15 1.15 88 1016.2
20200328194013 48 100 2.0 5.0 0.00 1.15 1.15 88 1015.7
20200328193520 48 92 2.0 6.0 0.00 1.15 1.15 88 1016.1
20200328193016 48 0 0.0 6.0 0.00 1.15 1.15 88 1016.4
20200328192514 48 0 0.0 6.0 0.00 1.15 1.15 88 1016.6
20200328192016 47 63 3.0 6.0 0.00 1.15 1.15 88 1016.8
20200328191514 48 78 2.0 5.0 0.00 1.15 1.15 88 1017.0
20200328191015 47 60 3.0 7.0 0.00 1.15 1.15 88 1017.1
20200328190514 48 58 3.0 7.0 0.01 1.15 1.15 88 1017.3
20200328190013 47 58 3.0 6.0 0.01 1.15 1.15 88 1017.2
20200328185514 47 97 3.0 6.0 0.01 1.15 1.15 88 1017.2
20200328185015 47 0 0.0 6.0 0.04 1.15 1.15 88 1017.4
20200328184514 47 73 1.0 6.0 0.07 1.15 1.15 88 1017.3
20200328184015 48 54 2.0 5.0 0.08 1.15 1.15 88 1017.2
20200328183515 47 80 3.0 5.0 0.09 1.15 1.15 88 1017.1
20200328183015 47 0 0.0 6.0 0.11 1.15 1.15 88 1017.1
20200328182514 47 0 0.0 4.0 0.14 1.15 1.15 88 1017.3
20200328182015 47 75 2.0 4.0 0.16 1.15 1.15 88 1017.4
20200328181514 47 0 0.0 6.0 0.18 1.15 1.15 88 1017.3
20200328181015 47 69 3.0 7.0 0.19 1.15 1.15 88 1017.5
20200328180514 47 74 2.0 4.0 0.20 1.14 1.14 88 1017.7
20200328180014 47 99 1.0 5.0 0.22 1.14 1.14 88 1017.9
20200328175514 47 86 2.0 4.0 0.25 1.14 1.14 88 1017.9
20200328175020 47 0 0.0 6.0 0.24 1.11 1.11 88 1017.7
20200328174514 47 0 0.0 5.0 0.26 1.08 1.08 88 1017.9
20200328174017 47 0 0.0 6.0 0.27 1.07 1.07 88 1017.8
20200328173515 47 102 3.0 6.0 0.27 1.06 1.06 88 1017.5
20200328173016 47 85 4.0 6.0 0.29 1.04 1.04 88 1017.8
20200328172516 47 0 0.0 4.0 0.28 1.01 1.01 88 1018.4
20200328172015 47 0 0.0 5.0 0.28 0.99 0.99 88 1018.4
20200328171515 47 90 2.0 6.0 0.33 0.97 0.97 88 1018.1
20200328171015 47 115 3.0 6.0 0.41 0.96 0.96 88 1017.6
20200328170516 47 109 3.0 6.0 0.42 0.94 0.94 88 1017.8
20200328170014 46 97 3.0 6.0 0.40 0.92 0.92 88 1017.4
20200328165514 47 136 4.0 8.0 0.37 0.89 0.89 88 1018.3
20200328164514 47 135 3.0 5.0 0.33 0.83 0.83 88 1019.3
20200328164014 47 71 2.0 5.0 0.32 0.81 0.81 88 1019.4
20200328163516 47 0 0.0 5.0 0.32 0.79 0.79 88 1019.0
20200328163014 47 136 1.0 5.0 0.30 0.76 0.76 88 1019.8
20200328162514 47 0 0.0 5.0 0.28 0.73 0.73 87 1019.4
20200328162014 47 102 4.0 6.0 0.26 0.70 0.70 87 1019.1